User: anonymous   Login
Location: Peebles
(55.6412°N, 3.1714°W)
Time: 15:46:30
(UTC+01:00)
Language:

METEOR 2-8 DEB - Orbit

View from above orbital plane
View from above orbital plane
View from above satellite
View from above satellite

Ground track
Ground track

The orbit data is extracted from the following two-line orbital elements,

1 36340U 82025AA  22272.94443037  .00003238  00000-0  13872-2 0  9991
2 36340  82.5277 164.4999 0020741 209.8191 150.1811 14.24508012468726
Epoch (UTC): 29 September 2022 22:39:58
Eccentricity: 0.0020741
inclination: 82.5277°
perigee height: 795 km
apogee height: 825 km
right ascension of ascending node: 164.4999°
argument of perigee: 209.8191°
revolutions per day: 14.24508012
mean anomaly at epoch: 150.1811°
orbit number at epoch: 46872

The dashed part of the orbit path shows where the satellite is in the earth's shadow,  

DLR